When you browse on this site, cookies collect data to enhance your experience and personalize the content and advertising you see.
Visit our Privacy Policy to learn more. By continuing to use the site, you agree to this use of cookies and data.
  • In United Kingdom
  • List of Countries
  • For 7 days
  • Water Temperature
  • Satellite Maps
  • Weather Map
  • Weather Widgets
  • user-avatar
    Login

    Hourly Weather Cambridge

    Today, 23 April, Tuesday

    Time Temperature Precipitation Wind Pressure Humidity
    00:00 +13°C° 0 mm 2 mps 749 mmHg 64%
    01:00 +12°C° 0 mm 2 mps 749 mmHg 70%
    02:00 +12°C° 0 mm 2 mps 749 mmHg 75%
    03:00 +10°C° 0 mm 2 mps 749 mmHg 81%
    04:00 +10°C° 0 mm 3 mps 748 mmHg 81%
    05:00 +11°C° 0 mm 3 mps 748 mmHg 82%
    06:00 +11°C° 0 mm 3 mps 748 mmHg 81%
    07:00 +13°C° 0 mm 3 mps 748 mmHg 76%
    08:00 +14°C° 0 mm 4 mps 748 mmHg 71%
    09:00 +17°C° 0 mm 4 mps 748 mmHg 67%
    10:00 +18°C° 0 mm 4 mps 747 mmHg 63%
    11:00 +19°C° 0 mm 5 mps 747 mmHg 60%
    12:00 +21°C° 0 mm 5 mps 747 mmHg 57%
    13:00 +20°C° 0 mm 5 mps 747 mmHg 57%
    14:00 +20°C° 0 mm 5 mps 747 mmHg 57%
    15:00 +20°C° 0 mm 5 mps 746 mmHg 57%
    16:00 +19°C° 0 mm 5 mps 746 mmHg 62%
    17:00 +17°C° 0 mm 4 mps 746 mmHg 66%
    18:00 +16°C° 0 mm 3 mps 745 mmHg 71%
    19:00 +14°C° 0 mm 3 mps 745 mmHg 76%
    20:00 +12°C° 0 mm 3 mps 745 mmHg 80%
    21:00 +11°C° 0 mm 3 mps 745 mmHg 85%
    22:00 +10°C° 0 mm 3 mps 745 mmHg 87%
    23:00 +10°C° 0 mm 3 mps 745 mmHg 89%

    Tomorrow, 24 April, Wednesday

    Time Temperature Precipitation Wind Pressure Humidity
    00:00 +10°C° 0 mm 3 mps 744 mmHg 91%
    01:00 +10°C° 0 mm 3 mps 744 mmHg 93%
    02:00 +10°C° 0 mm 3 mps 744 mmHg 94%
    03:00 +10°C° 0 mm 3 mps 743 mmHg 96%
    04:00 +10°C° 0 mm 3 mps 743 mmHg 95%
    05:00 +10°C° 0 mm 3 mps 743 mmHg 94%
    06:00 +11°C° 0 mm 3 mps 742 mmHg 94%
    07:00 +13°C° 0.1 mm 4 mps 742 mmHg 87%
    08:00 +15°C° 0.1 mm 5 mps 742 mmHg 80%
    09:00 +19°C° 0.1 mm 6 mps 742 mmHg 74%
    10:00 +18°C° 0.3 mm 7 mps 742 mmHg 73%
    11:00 +18°C° 0.3 mm 7 mps 743 mmHg 72%
    12:00 +18°C° 0.3 mm 8 mps 743 mmHg 70%
    13:00 +17°C° 0.1 mm 8 mps 743 mmHg 68%
    14:00 +16°C° 0.1 mm 8 mps 744 mmHg 66%
    15:00 +16°C° 0.1 mm 8 mps 744 mmHg 64%
    16:00 +15°C° 0 mm 7 mps 744 mmHg 67%
    17:00 +14°C° 0 mm 6 mps 745 mmHg 70%
    18:00 +13°C° 0 mm 5 mps 745 mmHg 72%
    19:00 +12°C° 0 mm 4 mps 746 mmHg 76%
    20:00 +11°C° 0 mm 4 mps 746 mmHg 79%
    21:00 +10°C° 0 mm 3 mps 747 mmHg 82%
    22:00 +9°C° 0 mm 3 mps 747 mmHg 86%
    23:00 +9°C° 0 mm 3 mps 747 mmHg 89%

    Day after tomorrow, 25 April, Thursday

    Time Temperature Precipitation Wind Pressure Humidity
    00:00 +8°C° 0 mm 4 mps 747 mmHg 92%
    01:00 +7°C° 0 mm 4 mps 747 mmHg 93%
    02:00 +7°C° 0 mm 4 mps 746 mmHg 93%
    03:00 +7°C° 0 mm 5 mps 746 mmHg 94%
    04:00 +8°C° 0.4 mm 5 mps 746 mmHg 93%
    05:00 +8°C° 0.4 mm 5 mps 746 mmHg 93%
    06:00 +9°C° 0.4 mm 6 mps 746 mmHg 92%
    07:00 +9°C° 0.6 mm 6 mps 746 mmHg 90%
    08:00 +9°C° 0.6 mm 6 mps 747 mmHg 87%
    09:00 +10°C° 0.6 mm 6 mps 747 mmHg 85%
    10:00 +11°C° 0.4 mm 6 mps 748 mmHg 78%
    11:00 +12°C° 0.4 mm 7 mps 748 mmHg 71%
    12:00 +14°C° 0.4 mm 7 mps 749 mmHg 64%
    13:00 +14°C° 0.3 mm 7 mps 749 mmHg 63%
    14:00 +14°C° 0.3 mm 7 mps 750 mmHg 61%
    15:00 +14°C° 0.3 mm 7 mps 750 mmHg 60%
    16:00 +13°C° 0.3 mm 6 mps 750 mmHg 66%
    17:00 +12°C° 0.3 mm 5 mps 750 mmHg 72%
    18:00 +10°C° 0.3 mm 5 mps 751 mmHg 78%
    19:00 +10°C° 0 mm 4 mps 751 mmHg 81%
    20:00 +8°C° 0 mm 4 mps 752 mmHg 84%
    21:00 +7°C° 0 mm 4 mps 752 mmHg 86%
    22:00 +8°C° 0 mm 3 mps 752 mmHg 88%
    23:00 +7°C° 0 mm 3 mps 752 mmHg 89%

    26 April, Friday

    Time Temperature Precipitation Wind Pressure Humidity
    00:00 +7°C° 0 mm 3 mps 753 mmHg 90%
    01:00 +5°C° 0 mm 3 mps 753 mmHg 91%
    02:00 +5°C° 0 mm 3 mps 753 mmHg 92%
    03:00 +5°C° 0 mm 3 mps 753 mmHg 94%
    04:00 +5°C° 0 mm 3 mps 753 mmHg 93%
    05:00 +7°C° 0 mm 3 mps 753 mmHg 92%
    06:00 +7°C° 0 mm 3 mps 753 mmHg 91%
    07:00 +7°C° 0.2 mm 4 mps 753 mmHg 90%
    08:00 +8°C° 0.2 mm 4 mps 753 mmHg 88%
    09:00 +9°C° 0.2 mm 5 mps 753 mmHg 86%
    10:00 +11°C° 0.2 mm 4 mps 753 mmHg 83%
    11:00 +12°C° 0.2 mm 4 mps 753 mmHg 80%
    12:00 +13°C° 0.2 mm 3 mps 753 mmHg 77%
    13:00 +13°C° 0.8 mm 3 mps 753 mmHg 75%
    14:00 +15°C° 0.8 mm 2 mps 753 mmHg 72%
    15:00 +15°C° 0.8 mm 1 mps 753 mmHg 70%
    16:00 +14°C° 1 mm 2 mps 753 mmHg 74%
    17:00 +13°C° 1 mm 3 mps 753 mmHg 79%
    18:00 +12°C° 1 mm 4 mps 754 mmHg 83%
    19:00 +11°C° 0 mm 4 mps 754 mmHg 86%
    20:00 +9°C° 0 mm 5 mps 755 mmHg 88%
    21:00 +8°C° 0 mm 5 mps 755 mmHg 91%
    22:00 +7°C° 0 mm 5 mps 756 mmHg 91%
    23:00 +7°C° 0 mm 6 mps 756 mmHg 91%

    27 April, Saturday

    Time Temperature Precipitation Wind Pressure Humidity
    00:00 +5°C° 0 mm 6 mps 757 mmHg 92%
    01:00 +6°C° 0 mm 5 mps 756 mmHg 91%
    02:00 +6°C° 0 mm 5 mps 756 mmHg 91%
    03:00 +5°C° 0 mm 4 mps 756 mmHg 90%
    04:00 +5°C° 0.6 mm 3 mps 756 mmHg 91%
    05:00 +6°C° 0.6 mm 2 mps 756 mmHg 92%
    06:00 +7°C° 0.6 mm 1 mps 756 mmHg 93%
    07:00 +7°C° 1.1 mm 2 mps 756 mmHg 90%
    08:00 +8°C° 1.1 mm 3 mps 757 mmHg 86%
    09:00 +8°C° 1.1 mm 4 mps 757 mmHg 83%
    10:00 +9°C° 0.1 mm 5 mps 758 mmHg 77%
    11:00 +10°C° 0.1 mm 6 mps 759 mmHg 71%
    12:00 +11°C° 0.1 mm 7 mps 760 mmHg 66%
    13:00 +12°C° 0.1 mm 7 mps 760 mmHg 63%
    14:00 +12°C° 0.1 mm 8 mps 761 mmHg 60%
    15:00 +12°C° 0.1 mm 8 mps 762 mmHg 57%
    16:00 +11°C° 0.1 mm 7 mps 763 mmHg 61%
    17:00 +11°C° 0.1 mm 6 mps 763 mmHg 64%
    18:00 +10°C° 0.1 mm 5 mps 764 mmHg 68%
    19:00 +8°C° 0 mm 5 mps 765 mmHg 69%
    20:00 +7°C° 0 mm 5 mps 766 mmHg 70%
    21:00 +6°C° 0 mm 5 mps 766 mmHg 70%
    22:00 +5°C° 0 mm 4 mps 767 mmHg 71%
    23:00 +4°C° 0 mm 3 mps 767 mmHg 71%

    28 April, Sunday

    Time Temperature Precipitation Wind Pressure Humidity
    00:00 +4°C° 0 mm 3 mps 767 mmHg 72%
    01:00 +4°C° 0 mm 3 mps 767 mmHg 74%
    02:00 +3°C° 0 mm 3 mps 767 mmHg 77%
    03:00 +4°C° 0 mm 2 mps 767 mmHg 80%
    04:00 +4°C° 0 mm 3 mps 767 mmHg 80%
    05:00 +4°C° 0 mm 3 mps 767 mmHg 81%
    06:00 +5°C° 0 mm 3 mps 767 mmHg 82%
    07:00 +6°C° 0 mm 4 mps 766 mmHg 80%
    08:00 +8°C° 0 mm 4 mps 766 mmHg 78%
    09:00 +9°C° 0 mm 5 mps 766 mmHg 76%
    10:00 +10°C° 0 mm 5 mps 766 mmHg 76%
    11:00 +12°C° 0 mm 5 mps 765 mmHg 76%
    12:00 +14°C° 0 mm 6 mps 765 mmHg 76%
    13:00 +14°C° 0 mm 6 mps 765 mmHg 77%
    14:00 +14°C° 0 mm 6 mps 764 mmHg 78%
    15:00 +14°C° 0 mm 6 mps 763 mmHg 80%
    16:00 +14°C° 0 mm 6 mps 763 mmHg 81%
    17:00 +13°C° 0 mm 5 mps 762 mmHg 83%
    18:00 +13°C° 0 mm 5 mps 762 mmHg 84%
    19:00 +12°C° 0 mm 5 mps 762 mmHg 87%
    20:00 +10°C° 0 mm 5 mps 761 mmHg 89%
    21:00 +11°C° 0 mm 4 mps 761 mmHg 91%
    22:00 +10°C° 0.1 mm 4 mps 761 mmHg 90%
    23:00 +9°C° 0.1 mm 5 mps 760 mmHg 90%
    Show more